EN

Hourly Weather Hotin

Today, 30 October, Friday

Time Temperature Precipitation Wind Pressure Humidity
00:00 +12°C° 0 mm 1 mps 743 mmHg 85%
01:00 +12°C° 0 mm 1 mps 744 mmHg 85%
02:00 +11°C° 0 mm 1 mps 744 mmHg 84%
03:00 +11°C° 0 mm 1 mps 744 mmHg 84%
04:00 +11°C° 0 mm 1 mps 744 mmHg 84%
05:00 +11°C° 0 mm 1 mps 743 mmHg 84%
06:00 +10°C° 0.1 mm 2 mps 744 mmHg 85%
07:00 +10°C° 0.1 mm 2 mps 744 mmHg 85%
08:00 +10°C° 0.1 mm 3 mps 745 mmHg 86%
09:00 +10°C° 0.4 mm 4 mps 745 mmHg 85%
10:00 +9°C° 0.4 mm 5 mps 745 mmHg 84%
11:00 +9°C° 0.4 mm 5 mps 745 mmHg 83%
12:00 +9°C° 0.1 mm 5 mps 745 mmHg 79%
13:00 +10°C° 0.1 mm 5 mps 746 mmHg 74%
14:00 +10°C° 0.1 mm 5 mps 746 mmHg 70%
15:00 +10°C° 0 mm 4 mps 746 mmHg 71%
16:00 +10°C° 0 mm 4 mps 746 mmHg 71%
17:00 +9°C° 0 mm 3 mps 746 mmHg 72%
18:00 +9°C° 0 mm 3 mps 746 mmHg 74%
19:00 +8°C° 0 mm 2 mps 746 mmHg 75%
20:00 +8°C° 0 mm 2 mps 746 mmHg 77%
21:00 +8°C° 0 mm 2 mps 746 mmHg 77%
22:00 +8°C° 0 mm 1 mps 746 mmHg 77%
23:00 +8°C° 0 mm 1 mps 746 mmHg 77%

Tomorrow, 31 October, Saturday

Time Temperature Precipitation Wind Pressure Humidity
00:00 +8°C° 0 mm 1 mps 746 mmHg 78%
01:00 +8°C° 0 mm 1 mps 746 mmHg 78%
02:00 +7°C° 0 mm 0 mps 746 mmHg 78%
03:00 +7°C° 0 mm 0 mps 745 mmHg 78%
04:00 +7°C° 0 mm 0 mps 745 mmHg 78%
05:00 +7°C° 0 mm 0 mps 745 mmHg 78%
06:00 +7°C° 0.5 mm 0 mps 745 mmHg 81%
07:00 +8°C° 0.5 mm 1 mps 745 mmHg 84%
08:00 +8°C° 0.5 mm 1 mps 745 mmHg 87%
09:00 +8°C° 0.2 mm 1 mps 745 mmHg 83%
10:00 +8°C° 0.2 mm 2 mps 745 mmHg 79%
11:00 +9°C° 0.2 mm 2 mps 745 mmHg 75%
12:00 +9°C° 0.3 mm 3 mps 746 mmHg 73%
13:00 +9°C° 0.3 mm 3 mps 746 mmHg 70%
14:00 +10°C° 0.3 mm 4 mps 746 mmHg 68%
15:00 +8°C° 0 mm 4 mps 746 mmHg 68%
16:00 +8°C° 0 mm 4 mps 746 mmHg 69%
17:00 +7°C° 0 mm 4 mps 746 mmHg 69%
18:00 +8°C° 0 mm 3 mps 747 mmHg 70%
19:00 +7°C° 0 mm 3 mps 747 mmHg 71%
20:00 +7°C° 0 mm 3 mps 747 mmHg 72%
21:00 +7°C° 0 mm 3 mps 747 mmHg 72%
22:00 +7°C° 0 mm 3 mps 747 mmHg 73%
23:00 +6°C° 0 mm 4 mps 747 mmHg 73%

Day after tomorrow, 1 November, Sunday

Time Temperature Precipitation Wind Pressure Humidity
00:00 +6°C° 0 mm 4 mps 747 mmHg 76%
01:00 +5°C° 0 mm 4 mps 747 mmHg 79%
02:00 +5°C° 0 mm 4 mps 747 mmHg 82%
03:00 +5°C° 0 mm 5 mps 747 mmHg 84%
04:00 +3°C° 0 mm 5 mps 747 mmHg 85%
05:00 +3°C° 0 mm 5 mps 747 mmHg 86%
06:00 +4°C° 0 mm 6 mps 747 mmHg 85%
07:00 +4°C° 0 mm 6 mps 747 mmHg 84%
08:00 +4°C° 0 mm 6 mps 747 mmHg 83%
09:00 +5°C° 0 mm 6 mps 747 mmHg 79%
10:00 +7°C° 0 mm 6 mps 747 mmHg 76%
11:00 +8°C° 0 mm 6 mps 747 mmHg 72%
12:00 +9°C° 0 mm 6 mps 747 mmHg 72%
13:00 +9°C° 0 mm 6 mps 746 mmHg 72%
14:00 +9°C° 0 mm 7 mps 746 mmHg 71%
15:00 +9°C° 0 mm 6 mps 746 mmHg 73%
16:00 +8°C° 0 mm 5 mps 746 mmHg 74%
17:00 +8°C° 0 mm 4 mps 746 mmHg 76%
18:00 +8°C° 0 mm 4 mps 746 mmHg 77%
19:00 +8°C° 0 mm 4 mps 746 mmHg 78%
20:00 +9°C° 0 mm 3 mps 746 mmHg 79%
21:00 +8°C° 0 mm 3 mps 746 mmHg 79%
22:00 +8°C° 0 mm 3 mps 746 mmHg 79%
23:00 +8°C° 0 mm 3 mps 746 mmHg 79%

2 November, Monday

Time Temperature Precipitation Wind Pressure Humidity
00:00 +8°C° 0 mm 3 mps 746 mmHg 81%
01:00 +7°C° 0 mm 3 mps 746 mmHg 84%
02:00 +5°C° 0 mm 3 mps 746 mmHg 86%
03:00 +5°C° 0 mm 3 mps 746 mmHg 87%
04:00 +4°C° 0 mm 3 mps 746 mmHg 87%
05:00 +4°C° 0 mm 3 mps 746 mmHg 88%
06:00 +5°C° 0 mm 2 mps 746 mmHg 87%
07:00 +5°C° 0 mm 2 mps 746 mmHg 86%
08:00 +5°C° 0 mm 2 mps 746 mmHg 85%
09:00 +7°C° 0 mm 2 mps 746 mmHg 78%
10:00 +8°C° 0 mm 2 mps 746 mmHg 70%
11:00 +9°C° 0 mm 2 mps 747 mmHg 62%
12:00 +10°C° 0 mm 2 mps 746 mmHg 58%
13:00 +12°C° 0 mm 2 mps 746 mmHg 55%
14:00 +13°C° 0 mm 2 mps 746 mmHg 52%
15:00 +12°C° 0 mm 2 mps 746 mmHg 55%
16:00 +11°C° 0 mm 1 mps 746 mmHg 58%
17:00 +10°C° 0 mm 1 mps 746 mmHg 62%
18:00 +10°C° 0 mm 1 mps 746 mmHg 62%
19:00 +10°C° 0 mm 1 mps 747 mmHg 61%
20:00 +9°C° 0 mm 0 mps 747 mmHg 61%
21:00 +9°C° 0 mm 0 mps 747 mmHg 61%
22:00 +10°C° 0 mm 0 mps 747 mmHg 60%
23:00 +11°C° 0 mm 1 mps 747 mmHg 60%

3 November, Tuesday

Time Temperature Precipitation Wind Pressure Humidity
00:00 +11°C° 0 mm 1 mps 747 mmHg 61%
01:00 +10°C° 0 mm 1 mps 747 mmHg 61%
02:00 +10°C° 0 mm 1 mps 747 mmHg 62%
03:00 +10°C° 0 mm 1 mps 747 mmHg 62%
04:00 +10°C° 0 mm 1 mps 746 mmHg 63%
05:00 +10°C° 0 mm 1 mps 746 mmHg 63%
06:00 +10°C° 0 mm 1 mps 746 mmHg 64%
07:00 +10°C° 0 mm 1 mps 747 mmHg 66%
08:00 +10°C° 0 mm 1 mps 747 mmHg 67%
09:00 +10°C° 0.1 mm 1 mps 747 mmHg 69%
10:00 +10°C° 0.1 mm 1 mps 747 mmHg 72%
11:00 +10°C° 0.1 mm 1 mps 747 mmHg 75%
12:00 +10°C° 0.5 mm 1 mps 747 mmHg 79%
13:00 +10°C° 0.5 mm 1 mps 747 mmHg 82%
14:00 +9°C° 0.5 mm 1 mps 747 mmHg 86%
15:00 +9°C° 0.8 mm 1 mps 747 mmHg 89%
16:00 +9°C° 0.8 mm 1 mps 747 mmHg 91%
17:00 +9°C° 0.8 mm 1 mps 747 mmHg 93%
18:00 +9°C° 0.8 mm 1 mps 747 mmHg 94%
19:00 +10°C° 0.8 mm 1 mps 747 mmHg 95%
20:00 +10°C° 0.8 mm 1 mps 748 mmHg 96%
21:00 +10°C° 0.8 mm 1 mps 748 mmHg 96%
22:00 +10°C° 0.8 mm 1 mps 748 mmHg 96%
23:00 +10°C° 0.8 mm 1 mps 748 mmHg 96%

4 November, Wednesday

Time Temperature Precipitation Wind Pressure Humidity
00:00 +10°C° 0.4 mm 1 mps 748 mmHg 96%
01:00 +10°C° 0.4 mm 1 mps 748 mmHg 96%
02:00 +10°C° 0.4 mm 1 mps 748 mmHg 95%
03:00 +10°C° 0.1 mm 1 mps 748 mmHg 94%
04:00 +9°C° 0.1 mm 2 mps 748 mmHg 92%
05:00 +9°C° 0.1 mm 2 mps 749 mmHg 90%
06:00 +9°C° 0 mm 2 mps 749 mmHg 88%
07:00 +9°C° 0 mm 2 mps 749 mmHg 86%
08:00 +9°C° 0 mm 2 mps 750 mmHg 84%
09:00 +10°C° 0 mm 3 mps 750 mmHg 78%
10:00 +11°C° 0 mm 3 mps 750 mmHg 72%
11:00 +12°C° 0 mm 4 mps 751 mmHg 67%
12:00 +12°C° 0 mm 4 mps 751 mmHg 65%
13:00 +13°C° 0 mm 4 mps 751 mmHg 63%
14:00 +13°C° 0 mm 3 mps 751 mmHg 61%
15:00 +12°C° 0 mm 3 mps 751 mmHg 65%
16:00 +11°C° 0 mm 3 mps 751 mmHg 69%
17:00 +10°C° 0 mm 2 mps 751 mmHg 73%
18:00 +10°C° 0 mm 2 mps 751 mmHg 75%
19:00 +10°C° 0 mm 2 mps 752 mmHg 77%
20:00 +9°C° 0 mm 2 mps 752 mmHg 79%
21:00 +9°C° 0 mm 2 mps 753 mmHg 80%
22:00 +8°C° 0 mm 2 mps 753 mmHg 81%
23:00 +8°C° 0 mm 2 mps 753 mmHg 82%
Show more

We Need Your Consent

Meteoprog and our Service Providers may store and access personal data such as cookies, device identifiers or other similar technologies on your device and process such data to personalise content and ads, as well as provide social media features and to analyse the traffic.

  • Store and/or access information on your device

    Cookies, device identifiers or other information can be stored or accessed on your device for the purposes indicated above.

  • Personalised ads and content, ad and content measurement, audience insights, and products development

    Ads and content can be personalised based on a profile. More data can be added to better personalise ads and content. Ad and content performance can be measured. Insights about the audience who saw the ads and content can be derived. Such data can be used to develop or improve user’s experience, systems and software.

By clicking ‘I Agree’ you will allow the use of indicated cookies, device identifiers, web beacons or other similar technologies. Your settings can be changed in the browser on your device.

For certain purposes, legitimate interests may be relied on, rather than consent. You can read more about this in our Privacy and Cookie Policy.